JST575 YMML-YSSY

Flight info

Callsign JST575
Flight time N/A
Altitude 33000
Route ML H129 DOSEL Y59 RIVET
Aircraft A20N/M-SDE2E3FGHIRWXY/LB1

Departure

Time 2026-05-07 10:13
Airport Melbourne Airport (YMML)

Arrival

Time N/A
Airport Sydney Kingsford Smith International Airport (YSSY)
Time Latitude Longitude Altitude Speed Heading
2026-05-07 09:49 -37.67381 144.84488 362 ft 0 kts
2026-05-07 09:58 -37.67385 144.84488 368 ft 0 kts
2026-05-07 09:59 -37.67395 144.84487 362 ft 3 kts 340°
2026-05-07 09:59 -37.67406 144.84500 364 ft 0 kts 270°
2026-05-07 10:03 -37.67407 144.84499 362 ft 1 kts 263°
2026-05-07 10:03 -37.67441 144.84458 366 ft 12 kts 222°
2026-05-07 10:04 -37.67470 144.84360 363 ft 11 kts 283°
2026-05-07 10:04 -37.67413 144.84313 370 ft 12 kts 346°
2026-05-07 10:04 -37.67321 144.84293 367 ft 13 kts 351°
2026-05-07 10:04 -37.67238 144.84276 371 ft 12 kts 352°
2026-05-07 10:05 -37.67156 144.84262 373 ft 12 kts 353°
2026-05-07 10:05 -37.67066 144.84244 373 ft 14 kts 352°
2026-05-07 10:05 -37.66976 144.84227 375 ft 13 kts 353°
2026-05-07 10:05 -37.66891 144.84213 377 ft 12 kts 351°
2026-05-07 10:06 -37.66815 144.84198 378 ft 9 kts 351°
2026-05-07 10:06 -37.66753 144.84189 378 ft 9 kts
2026-05-07 10:06 -37.66697 144.84256 374 ft 16 kts 70°
2026-05-07 10:06 -37.66681 144.84372 368 ft 15 kts 85°
2026-05-07 10:07 -37.66666 144.84526 357 ft 21 kts 84°
2026-05-07 10:07 -37.66639 144.84723 344 ft 22 kts 74°
2026-05-07 10:07 -37.66558 144.84797 336 ft 12 kts
2026-05-07 10:07 -37.66473 144.84788 334 ft 8 kts
2026-05-07 10:08 -37.66459 144.84789 333 ft 3 kts
2026-05-07 10:08 -37.66414 144.84791 333 ft 5 kts 360°
2026-05-07 10:08 -37.66403 144.84790 332 ft 0 kts 358°
2026-05-07 10:10 -37.66368 144.84788 332 ft 12 kts 357°
2026-05-07 10:10 -37.66298 144.84785 331 ft 0 kts 358°
2026-05-07 10:10 -37.66246 144.84763 334 ft 13 kts 322°
2026-05-07 10:11 -37.66217 144.84666 351 ft 10 kts 274°
2026-05-07 10:11 -37.66217 144.84661 353 ft 0 kts 274°
2026-05-07 10:12 -37.66217 144.84659 343 ft 3 kts 273°
2026-05-07 10:13 -37.66205 144.84424 356 ft 60 kts 275°
2026-05-07 10:13 -37.66153 144.83543 426 ft 137 kts 272°
2026-05-07 10:13 -37.66083 144.82211 1031 ft 165 kts 272°
2026-05-07 10:13 -37.66011 144.80691 1897 ft 179 kts 271°
2026-05-07 10:14 -37.65938 144.79108 2760 ft 189 kts 269°
2026-05-07 10:14 -37.65879 144.77383 3647 ft 200 kts 267°
2026-05-07 10:14 -37.65847 144.75611 4666 ft 204 kts 265°
2026-05-07 10:14 -37.65753 144.73859 5857 ft 196 kts 269°
2026-05-07 10:15 -37.65595 144.72180 6989 ft 191 kts 268°
2026-05-07 10:15 -37.65449 144.70512 7934 ft 191 kts 266°
2026-05-07 10:15 -37.65322 144.68836 8853 ft 193 kts 264°
2026-05-07 10:15 -37.65197 144.67143 9738 ft 198 kts 267°
2026-05-07 10:16 -37.64618 144.65469 10481 ft 229 kts 303°
2026-05-07 10:16 -37.63185 144.64407 11225 ft 253 kts 334°
2026-05-07 10:16 -37.61457 144.63829 12047 ft 259 kts 339°
2026-05-07 10:16 -37.59698 144.63302 12861 ft 262 kts 338°
2026-05-07 10:17 -37.57927 144.62732 13682 ft 263 kts 336°
2026-05-07 10:17 -37.56149 144.62120 14435 ft 266 kts 335°
2026-05-07 10:17 -37.54300 144.61706 15097 ft 281 kts 359°
2026-05-07 10:17 -37.52421 144.62473 15704 ft 291 kts 37°
2026-05-07 10:18 -37.51102 144.64347 16344 ft 285 kts 67°
2026-05-07 10:18 -37.50195 144.66532 17002 ft 286 kts 69°
2026-05-07 10:18 -37.49229 144.68738 17674 ft 291 kts 65°
2026-05-07 10:18 -37.48126 144.70955 18330 ft 297 kts 60°
2026-05-07 10:19 -37.47056 144.73148 18941 ft 299 kts 65°
2026-05-07 10:19 -37.46039 144.75442 19559 ft 302 kts 66°
2026-05-07 10:19 -37.45001 144.77758 20148 ft 306 kts 65°
2026-05-07 10:19 -37.43936 144.80095 20630 ft 311 kts 64°
2026-05-07 10:20 -37.42856 144.82446 20751 ft 311 kts 64°
2026-05-07 10:20 -37.41763 144.84816 21212 ft 315 kts 64°
2026-05-07 10:20 -37.40662 144.87208 21824 ft 317 kts 64°
2026-05-07 10:20 -37.39555 144.89618 22419 ft 320 kts 63°
2026-05-07 10:21 -37.38436 144.92054 22970 ft 324 kts 63°
2026-05-07 10:21 -37.37318 144.94489 23507 ft 327 kts 63°
2026-05-07 10:21 -37.36173 144.96984 24007 ft 331 kts 62°
2026-05-07 10:21 -37.35016 144.99504 24448 ft 335 kts 62°
2026-05-07 10:22 -37.33847 145.02048 24912 ft 338 kts 62°
2026-05-07 10:22 -37.32663 145.04622 25334 ft 342 kts 62°
2026-05-07 10:22 -37.31466 145.07222 25771 ft 345 kts 62°
2026-05-07 10:22 -37.30258 145.09843 26209 ft 348 kts 62°
2026-05-07 10:23 -37.29038 145.12488 26632 ft 352 kts 62°
2026-05-07 10:23 -37.27821 145.15125 27045 ft 355 kts 62°
2026-05-07 10:23 -37.26578 145.17816 27465 ft 358 kts 61°
2026-05-07 10:23 -37.25323 145.20530 27869 ft 361 kts 61°
2026-05-07 10:24 -37.24059 145.23262 28265 ft 364 kts 61°
2026-05-07 10:24 -37.22777 145.26029 28663 ft 368 kts 61°
2026-05-07 10:24 -37.21490 145.28807 29057 ft 371 kts 61°
2026-05-07 10:24 -37.20184 145.31623 29422 ft 374 kts 61°
2026-05-07 10:25 -37.18871 145.34450 29803 ft 377 kts 61°
2026-05-07 10:25 -37.17549 145.37295 30169 ft 380 kts 60°
2026-05-07 10:25 -37.16178 145.40093 30492 ft 383 kts 57°
2026-05-07 10:25 -37.14684 145.42868 30838 ft 384 kts 55°
2026-05-07 10:26 -37.13140 145.45587 31222 ft 383 kts 54°
2026-05-07 10:26 -37.11571 145.48288 31577 ft 383 kts 54°
2026-05-07 10:26 -37.09996 145.50982 31874 ft 385 kts 54°
2026-05-07 10:26 -37.08406 145.53706 32174 ft 388 kts 54°
2026-05-07 10:27 -37.06817 145.56442 32441 ft 390 kts 54°
2026-05-07 10:27 -37.05217 145.59206 32705 ft 392 kts 55°
2026-05-07 10:27 -37.03638 145.61943 32958 ft 396 kts 55°
2026-05-07 10:28 -37.00340 145.67666 32996 ft 416 kts 55°
2026-05-07 10:28 -36.96870 145.73682 33003 ft 437 kts 55°
2026-05-07 10:28 -36.95066 145.76803 32997 ft 448 kts 55°
2026-05-07 10:29 -36.93219 145.79997 33013 ft 459 kts 55°
2026-05-07 10:29 -36.91325 145.83266 32997 ft 470 kts 55°
2026-05-07 10:29 -36.89387 145.86608 32998 ft 480 kts 55°
2026-05-07 10:30 -36.85409 145.93455 33000 ft 499 kts 55°
2026-05-07 10:30 -36.83363 145.96970 32984 ft 500 kts 55°
2026-05-07 10:30 -36.79271 146.03989 32990 ft 500 kts 55°
2026-05-07 10:31 -36.75176 146.11002 32976 ft 501 kts 55°
2026-05-07 10:31 -36.71082 146.17999 32991 ft 508 kts 55°
2026-05-07 10:32 -36.66881 146.25169 32986 ft 515 kts 54°
2026-05-07 10:32 -36.62650 146.32369 32993 ft 515 kts 55°
2026-05-07 10:33 -36.58412 146.39565 32988 ft 515 kts 55°
2026-05-07 10:33 -36.54199 146.46706 32988 ft 515 kts 55°
2026-05-07 10:34 -36.49959 146.53878 32987 ft 515 kts 55°
2026-05-07 10:34 -36.45717 146.61036 32989 ft 512 kts 55°
2026-05-07 10:35 -36.41494 146.68149 32984 ft 511 kts 55°
2026-05-07 10:35 -36.37269 146.75249 32984 ft 511 kts 55°
2026-05-07 10:36 -36.33075 146.82284 32988 ft 511 kts 55°
2026-05-07 10:36 -36.28845 146.89366 32987 ft 511 kts 55°
2026-05-07 10:37 -36.24605 146.96448 32985 ft 512 kts 55°
2026-05-07 10:37 -36.20359 147.03526 32981 ft 512 kts 55°
2026-05-07 10:38 -36.16138 147.10547 32984 ft 511 kts 55°
2026-05-07 10:38 -36.11891 147.17596 32992 ft 511 kts 55°
2026-05-07 10:39 -36.07634 147.24645 32972 ft 511 kts 55°
2026-05-07 10:39 -36.03388 147.31666 32982 ft 509 kts 55°
2026-05-07 10:40 -35.99175 147.38617 33006 ft 509 kts 55°
2026-05-07 10:40 -35.94920 147.45620 32992 ft 510 kts 55°
2026-05-07 10:41 -35.90655 147.52627 32988 ft 510 kts 55°
2026-05-07 10:41 -35.86389 147.59623 33044 ft 510 kts 55°
2026-05-07 10:42 -35.84268 147.63096 33244 ft 511 kts 55°
2026-05-07 10:42 -35.82139 147.66578 33289 ft 512 kts 55°
2026-05-07 10:42 -35.77849 147.73584 33259 ft 513 kts 55°
2026-05-07 10:43 -35.73564 147.80565 33260 ft 512 kts 55°
2026-05-07 10:43 -35.69258 147.87568 33259 ft 512 kts 55°
2026-05-07 10:44 -35.64989 147.94498 33260 ft 512 kts 56°
2026-05-07 10:44 -35.60694 148.01454 33262 ft 512 kts 55°
2026-05-07 10:45 -35.56381 148.08426 33264 ft 512 kts 55°
2026-05-07 10:45 -35.52098 148.15337 33261 ft 512 kts 55°
2026-05-07 10:46 -35.47785 148.22284 33274 ft 513 kts 56°
2026-05-07 10:46 -35.43438 148.29272 33261 ft 516 kts 55°
2026-05-07 10:47 -35.39078 148.36262 33259 ft 516 kts 55°
2026-05-07 10:47 -35.34716 148.43240 33255 ft 516 kts 55°
2026-05-07 10:48 -35.30371 148.50180 33266 ft 518 kts 55°
2026-05-07 10:48 -35.25964 148.57209 33249 ft 522 kts 55°
2026-05-07 10:49 -35.21533 148.64255 33240 ft 522 kts 55°
2026-05-07 10:49 -35.17094 148.71303 33164 ft 524 kts 55°
2026-05-07 10:50 -35.14877 148.74817 32597 ft 521 kts 55°
2026-05-07 10:50 -35.12670 148.78310 32041 ft 518 kts 56°
2026-05-07 10:50 -35.10506 148.81732 31471 ft 515 kts 56°
2026-05-07 10:50 -35.08318 148.85189 30895 ft 513 kts 56°
2026-05-07 10:51 -35.06145 148.88619 30331 ft 510 kts 55°
2026-05-07 10:51 -35.03979 148.92035 29753 ft 506 kts 55°
2026-05-07 10:51 -35.01840 148.95405 29210 ft 501 kts 55°
2026-05-07 10:51 -34.99709 148.98760 28670 ft 497 kts 55°
2026-05-07 10:52 -34.97602 149.02074 28138 ft 493 kts 55°
2026-05-07 10:52 -34.95506 149.05367 27575 ft 490 kts 54°
2026-05-07 10:52 -34.93415 149.08648 26955 ft 490 kts 54°
2026-05-07 10:52 -34.91363 149.11869 26440 ft 486 kts 54°
2026-05-07 10:53 -34.89301 149.15101 26004 ft 481 kts 54°
2026-05-07 10:53 -34.87258 149.18301 25545 ft 476 kts 54°
2026-05-07 10:53 -34.85229 149.21475 25291 ft 474 kts 54°
2026-05-07 10:53 -34.83208 149.24635 25243 ft 475 kts 54°
2026-05-07 10:54 -34.81181 149.27802 24962 ft 472 kts 54°
2026-05-07 10:54 -34.79168 149.30943 24481 ft 469 kts 53°
2026-05-07 10:54 -34.77170 149.34056 24024 ft 466 kts 53°
2026-05-07 10:54 -34.75182 149.37152 23485 ft 462 kts 54°
2026-05-07 10:55 -34.73346 149.40334 22932 ft 458 kts 60°
2026-05-07 10:55 -34.71742 149.43649 22426 ft 452 kts 64°
2026-05-07 10:55 -34.70296 149.46957 21926 ft 448 kts 66°
2026-05-07 10:55 -34.68890 149.50313 21413 ft 443 kts 67°
2026-05-07 10:56 -34.67504 149.53644 20921 ft 440 kts 67°
2026-05-07 10:56 -34.66120 149.56936 20465 ft 436 kts 67°
2026-05-07 10:56 -34.64728 149.60199 20287 ft 434 kts 67°
2026-05-07 10:56 -34.63328 149.63441 20235 ft 434 kts 67°
2026-05-07 10:57 -34.61915 149.66689 20214 ft 434 kts 67°